Location: Besigheim
(48.9980°N, 9.1427°E)
Time: 11:14:24
(UTC+00:00)

SL-24 R/B - RUBIN 2 - Pass Details

Date: 25 February 2026
Orbit: 603 x 984 km, 64.6° (Epoch: 8 March)

Event Time Altitude Azimuth Distance (km) Brightness Sun altitude
Exits shadow 03:00:45 11° 1° (N) 1,901 6.3 -31.8°
Drops below altitude 10° 03:01:31 10° 11° (N) 1,975 6.5 -31.7°
Sets 03:05:17 0° 45° (NE) 2,863 8.0 -31.1°
